This is the latest recevied weather packets stored in our database for station/object N0KWA. If no packets are shown the sender has not sent any weather packets the latest 10 day(s).
| Time | Temp. | Humidity | Pressure | Rain* | Wind** | Luminosity | Snow |
|---|---|---|---|---|---|---|---|
| 1788469995 | 30° C | 85% | 1015.5 hPa | 0 mm | - | 19 W/m² | - |
| 1788469691 | 30° C | 84% | 1015.4 hPa | 0 mm | - | 14 W/m² | - |
| 1788469391 | 30° C | 83% | 1015.3 hPa | 0 mm | - | 11 W/m² | - |
| 1788469090 | 30° C | 83% | 1015.5 hPa | 0 mm | - | 10 W/m² | - |
| 1788468790 | 30.56° C | 82% | 1015.5 hPa | 0 mm | - | 9 W/m² | - |
| 1788468485 | 30.56° C | 81% | 1015.5 hPa | 0 mm | - | 8 W/m² | - |
| 1788468181 | 31.11° C | 80% | 1015.4 hPa | 0 mm | - | 10 W/m² | - |
| 1788467877 | 31.67° C | 80% | 1015.6 hPa | 0 mm | - | 14 W/m² | - |
| 1788467573 | 31.67° C | 78% | 1015.5 hPa | 0 mm | - | 12 W/m² | - |
| 1788467271 | 32.22° C | 74% | 1015.6 hPa | 0 mm | - | 19 W/m² | - |
| 1788466968 | 32.22° C | 71% | 1015.4 hPa | 0 mm | - | 32 W/m² | - |
| 1788466667 | 32.22° C | 74% | 1015.5 hPa | 0 mm | - | 28 W/m² | - |
| 1788466362 | 31.67° C | 76% | 1015.4 hPa | 0 mm | - | 145 W/m² | - |
| 1788466061 | 31.67° C | 77% | 1015.6 hPa | 0 mm | - | 564 W/m² | - |
| 1788465757 | 31.67° C | 73% | 1015.5 hPa | 0 mm | - | 38 W/m² | - |
| 1788465452 | 32.22° C | 73% | 1015.6 hPa | 0 mm | - | 13 W/m² | - |
| 1788465148 | 32.78° C | 72% | 1015.6 hPa | 0 mm | - | 39 W/m² | - |
| 1788464848 | 32.78° C | 70% | 1015.7 hPa | 0 mm | - | 22 W/m² | - |
| 1788464544 | 32.22° C | 71% | 1015.7 hPa | 0 mm | - | 31 W/m² | - |
| 1788464239 | 32.22° C | 74% | 1015.9 hPa | 0 mm | - | 38 W/m² | - |
| 1788463934 | 32.78° C | 73% | 1015.8 hPa | 0 mm | - | 12 W/m² | - |
| 1788463630 | 32.78° C | 70% | 1015.9 hPa | 0 mm | - | 29 W/m² | - |
| 1788463325 | 32.78° C | 75% | 1016 hPa | 0 mm | - | 38 W/m² | - |
| 1788463022 | 32.78° C | 72% | 1016.1 hPa | 0 mm | - | 51 W/m² | - |
| 1788462722 | 32.78° C | 69% | 1016 hPa | 0 mm | - | 29 W/m² | - |
* Rain latest hour (hover to see other rain measurements)
** Current wind speed in m/s (hover to see current wind gust speed)